Time,TemperatureF,DewpointF,PressureIn,WindDirection,WindDirectionDegrees,WindSpeedMPH,WindSpeedGustMPH,Humidity,HourlyPrecipIn,Conditions,Clouds,dailyrainin,SoftwareType,DateUTC
2013-06-03 00:02:00,66.0,61.0,29.82,WSW,247,0.0,2.0,84,0.00,,,0.01,Wunderground v.1.15,2013-06-03 04:02:00,
2013-06-03 00:04:00,65.9,61.3,29.82,WSW,247,1.0,2.0,85,0.00,,,0.00,Wunderground v.1.15,2013-06-03 04:04:00,
2013-06-03 00:10:00,65.5,60.9,29.82,WSW,247,1.0,1.0,85,0.00,,,0.00,Wunderground v.1.15,2013-06-03 04:10:00,
2013-06-03 00:12:00,65.3,60.7,29.82,WSW,247,1.0,1.0,85,0.00,,,0.00,Wunderground v.1.15,2013-06-03 04:12:00,
2013-06-03 00:16:00,64.8,60.2,29.82,WSW,247,1.0,2.0,85,0.00,,,0.00,Wunderground v.1.15,2013-06-03 04:16:00,
2013-06-03 00:22:00,64.3,60.0,29.82,WSW,247,0.0,0.0,86,0.00,,,0.00,Wunderground v.1.15,2013-06-03 04:22:00,
2013-06-03 00:28:00,64.1,59.8,29.82,WSW,247,0.0,0.0,86,0.00,,,0.00,Wunderground v.1.15,2013-06-03 04:28:00,
2013-06-03 00:34:00,64.0,59.7,29.82,WSW,247,0.0,0.0,86,0.00,,,0.00,Wunderground v.1.15,2013-06-03 04:34:00,
2013-06-03 00:40:00,63.6,59.3,29.82,WSW,247,0.0,1.0,86,0.00,,,0.00,Wunderground v.1.15,2013-06-03 04:40:00,
2013-06-03 00:46:00,63.1,59.2,29.82,WSW,247,0.0,2.0,87,0.00,,,0.00,Wunderground v.1.15,2013-06-03 04:46:00,
2013-06-03 00:52:00,62.6,58.7,29.82,WSW,247,0.0,0.0,87,0.00,,,0.00,Wunderground v.1.15,2013-06-03 04:52:00,
2013-06-03 00:58:00,62.2,58.0,29.82,WSW,249,0.0,2.0,86,0.00,,,0.00,Wunderground v.1.15,2013-06-03 04:58:00,
2013-06-03 01:04:00,60.9,57.3,29.82,WSW,249,0.0,0.0,88,0.00,,,0.00,Wunderground v.1.15,2013-06-03 05:04:00,
2013-06-03 01:10:00,60.5,56.9,29.81,WSW,249,0.0,0.0,88,0.00,,,0.00,Wunderground v.1.15,2013-06-03 05:10:00,
2013-06-03 01:16:00,60.2,56.9,29.82,SW,231,2.0,5.0,89,0.00,,,0.00,Wunderground v.1.15,2013-06-03 05:16:00,
2013-06-03 01:22:00,60.0,56.7,29.82,SW,231,2.0,3.0,89,0.00,,,0.00,Wunderground v.1.15,2013-06-03 05:22:00,
2013-06-03 01:28:00,59.6,56.4,29.82,SW,231,0.0,3.0,89,0.00,,,0.00,Wunderground v.1.15,2013-06-03 05:28:00,
2013-06-03 01:34:00,59.4,56.2,29.82,SW,231,0.0,1.0,89,0.00,,,0.00,Wunderground v.1.15,2013-06-03 05:34:00,
2013-06-03 01:40:00,59.6,56.7,29.82,SW,230,0.0,0.0,90,0.00,,,0.00,Wunderground v.1.15,2013-06-03 05:40:00,
2013-06-03 01:46:00,59.3,56.4,29.82,SW,229,1.0,4.0,90,0.00,,,0.00,Wunderground v.1.15,2013-06-03 05:46:00,
2013-06-03 01:52:00,59.1,56.2,29.82,SW,229,1.0,1.0,90,0.00,,,0.00,Wunderground v.1.15,2013-06-03 05:52:00,
2013-06-03 01:58:00,59.1,56.5,29.82,SW,229,1.0,4.0,91,0.00,,,0.00,Wunderground v.1.15,2013-06-03 05:58:00,
2013-06-03 02:04:00,58.8,56.2,29.82,SW,229,1.0,3.0,91,0.00,,,0.00,Wunderground v.1.15,2013-06-03 06:04:00,
2013-06-03 02:10:00,58.7,56.1,29.82,SW,229,1.0,1.0,91,0.00,,,0.00,Wunderground v.1.15,2013-06-03 06:10:00,
2013-06-03 02:16:00,58.3,55.7,29.82,SW,229,1.0,2.0,91,0.00,,,0.00,Wunderground v.1.15,2013-06-03 06:16:00,
2013-06-03 02:22:00,58.6,56.3,29.82,SW,229,0.0,1.0,92,0.00,,,0.00,Wunderground v.1.15,2013-06-03 06:22:00,
2013-06-03 02:28:00,58.7,56.4,29.82,SW,229,0.0,1.0,92,0.00,,,0.00,Wunderground v.1.15,2013-06-03 06:28:00,
2013-06-03 02:34:00,58.4,55.8,29.81,SW,229,0.0,0.0,91,0.00,,,0.00,Wunderground v.1.15,2013-06-03 06:34:00,
2013-06-03 02:40:00,58.6,56.3,29.81,SW,229,0.0,0.0,92,0.00,,,0.00,Wunderground v.1.15,2013-06-03 06:40:00,
2013-06-03 02:46:00,57.9,55.3,29.81,SW,229,0.0,0.0,91,0.00,,,0.00,Wunderground v.1.15,2013-06-03 06:46:00,
2013-06-03 02:52:00,57.5,54.9,29.81,SW,229,0.0,0.0,91,0.00,,,0.00,Wunderground v.1.15,2013-06-03 06:52:00,
2013-06-03 02:58:00,57.9,55.6,29.81,SW,229,0.0,0.0,92,0.00,,,0.00,Wunderground v.1.15,2013-06-03 06:58:00,
2013-06-03 03:04:00,58.0,55.7,29.82,SW,229,0.0,0.0,92,0.00,,,0.00,Wunderground v.1.15,2013-06-03 07:04:00,
2013-06-03 03:10:00,58.0,55.7,29.82,SW,229,0.0,0.0,92,0.00,,,0.00,Wunderground v.1.15,2013-06-03 07:10:00,
2013-06-03 03:16:00,57.9,55.9,29.82,SW,229,0.0,0.0,93,0.00,,,0.00,Wunderground v.1.15,2013-06-03 07:16:00,
2013-06-03 03:22:00,58.1,56.1,29.82,SW,230,1.0,2.0,93,0.00,,,0.00,Wunderground v.1.15,2013-06-03 07:22:00,
2013-06-03 03:28:00,58.7,57.0,29.82,SW,230,1.0,3.0,94,0.00,,,0.00,Wunderground v.1.15,2013-06-03 07:28:00,
2013-06-03 03:34:00,58.2,56.2,29.82,SW,230,0.0,1.0,93,0.00,,,0.00,Wunderground v.1.15,2013-06-03 07:34:00,
2013-06-03 03:40:00,58.1,56.1,29.82,SW,230,0.0,0.0,93,0.00,,,0.00,Wunderground v.1.15,2013-06-03 07:40:00,
2013-06-03 03:48:00,58.2,56.2,29.82,SW,230,0.0,0.0,93,0.00,,,0.00,Wunderground v.1.15,2013-06-03 07:48:00,
2013-06-03 03:54:00,58.5,56.8,29.82,SW,230,0.0,0.0,94,0.00,,,0.00,Wunderground v.1.15,2013-06-03 07:54:00,
2013-06-03 04:00:00,58.7,57.0,29.82,SW,230,0.0,3.0,94,0.00,,,0.00,Wunderground v.1.15,2013-06-03 08:00:00,
2013-06-03 04:06:00,59.0,57.3,29.82,SW,230,1.0,3.0,94,0.00,,,0.00,Wunderground v.1.15,2013-06-03 08:06:00,
2013-06-03 04:12:00,59.3,57.6,29.82,SW,229,2.0,2.0,94,0.00,,,0.00,Wunderground v.1.15,2013-06-03 08:12:00,
2013-06-03 04:18:00,59.6,57.9,29.82,SW,229,3.0,3.0,94,0.00,,,0.00,Wunderground v.1.15,2013-06-03 08:18:00,
2013-06-03 04:24:00,60.0,58.6,29.82,SW,229,2.0,3.0,95,0.00,,,0.00,Wunderground v.1.15,2013-06-03 08:24:00,
2013-06-03 04:30:00,59.9,58.2,29.82,SW,229,1.0,2.0,94,0.00,,,0.00,Wunderground v.1.15,2013-06-03 08:30:00,
2013-06-03 04:36:00,59.7,58.0,29.82,SW,229,1.0,2.0,94,0.00,,,0.00,Wunderground v.1.15,2013-06-03 08:36:00,
2013-06-03 04:42:00,59.7,58.0,29.82,SW,229,0.0,0.0,94,0.00,,,0.00,Wunderground v.1.15,2013-06-03 08:42:00,
2013-06-03 04:48:00,59.8,58.1,29.83,SW,229,0.0,0.0,94,0.00,,,0.00,Wunderground v.1.15,2013-06-03 08:48:00,
2013-06-03 04:54:00,60.0,58.3,29.83,SW,229,0.0,0.0,94,0.00,,,0.00,Wunderground v.1.15,2013-06-03 08:54:00,
2013-06-03 05:00:00,59.8,58.1,29.83,SW,229,0.0,0.0,94,0.00,,,0.00,Wunderground v.1.15,2013-06-03 09:00:00,
2013-06-03 05:06:00,59.8,58.1,29.83,SW,227,1.0,3.0,94,0.00,,,0.00,Wunderground v.1.15,2013-06-03 09:06:00,
2013-06-03 05:12:00,59.9,58.2,29.83,SW,227,1.0,1.0,94,0.00,,,0.00,Wunderground v.1.15,2013-06-03 09:12:00,
2013-06-03 05:18:00,59.5,57.8,29.83,SW,227,0.0,1.0,94,0.00,,,0.00,Wunderground v.1.15,2013-06-03 09:18:00,
2013-06-03 05:24:00,59.5,57.8,29.84,SW,227,0.0,0.0,94,0.00,,,0.00,Wunderground v.1.15,2013-06-03 09:24:00,
2013-06-03 05:30:00,59.7,58.0,29.83,SW,227,0.0,3.0,94,0.00,,,0.00,Wunderground v.1.15,2013-06-03 09:30:00,
2013-06-03 05:36:00,59.5,57.8,29.84,SW,227,1.0,3.0,94,0.00,,,0.00,Wunderground v.1.15,2013-06-03 09:36:00,
2013-06-03 05:42:00,59.6,57.9,29.83,SW,227,0.0,1.0,94,0.00,,,0.00,Wunderground v.1.15,2013-06-03 09:42:00,
2013-06-03 05:48:00,59.5,57.8,29.83,SW,227,0.0,1.0,94,0.00,,,0.00,Wunderground v.1.15,2013-06-03 09:48:00,
2013-06-03 05:54:00,59.7,58.0,29.84,SW,227,0.0,0.0,94,0.00,,,0.00,Wunderground v.1.15,2013-06-03 09:54:00,
2013-06-03 06:00:00,59.8,58.1,29.83,SW,227,0.0,0.0,94,0.00,,,0.00,Wunderground v.1.15,2013-06-03 10:00:00,
2013-06-03 06:06:00,59.9,58.2,29.84,SW,227,0.0,3.0,94,0.00,,,0.00,Wunderground v.1.15,2013-06-03 10:06:00,
2013-06-03 06:12:00,59.8,58.1,29.84,SW,227,0.0,0.0,94,0.00,,,0.00,Wunderground v.1.15,2013-06-03 10:12:00,
2013-06-03 06:18:00,60.1,58.7,29.84,SW,227,1.0,1.0,95,0.00,,,0.00,Wunderground v.1.15,2013-06-03 10:18:00,
2013-06-03 06:24:00,60.3,58.9,29.84,SW,227,0.0,1.0,95,0.00,,,0.00,Wunderground v.1.15,2013-06-03 10:24:00,
2013-06-03 06:30:00,60.1,58.4,29.85,SW,227,0.0,0.0,94,0.00,,,0.00,Wunderground v.1.15,2013-06-03 10:30:00,
2013-06-03 06:36:00,60.2,58.5,29.85,SW,227,0.0,0.0,94,0.00,,,0.00,Wunderground v.1.15,2013-06-03 10:36:00,
2013-06-03 06:42:00,60.2,58.5,29.85,SW,227,0.0,0.0,94,0.00,,,0.00,Wunderground v.1.15,2013-06-03 10:42:00,
2013-06-03 06:48:00,60.3,58.6,29.85,SW,227,0.0,0.0,94,0.00,,,0.00,Wunderground v.1.15,2013-06-03 10:48:00,
2013-06-03 06:54:00,60.4,58.7,29.85,SW,227,0.0,0.0,94,0.00,,,0.00,Wunderground v.1.15,2013-06-03 10:54:00,
2013-06-03 07:00:00,60.5,59.1,29.85,SW,227,0.0,0.0,95,0.00,,,0.00,Wunderground v.1.15,2013-06-03 11:00:00,
2013-06-03 07:06:00,61.1,59.7,29.85,SW,227,0.0,0.0,95,0.00,,,0.00,Wunderground v.1.15,2013-06-03 11:06:00,
2013-06-03 07:12:00,61.9,60.5,29.85,SW,228,0.0,2.0,95,0.00,,,0.00,Wunderground v.1.15,2013-06-03 11:12:00,
2013-06-03 07:18:00,62.0,60.3,29.85,ESE,102,1.0,4.0,94,0.00,,,0.00,Wunderground v.1.15,2013-06-03 11:18:00,
2013-06-03 07:24:00,61.3,58.3,29.85,East,86,2.0,2.0,90,0.00,,,0.00,Wunderground v.1.15,2013-06-03 11:24:00,
2013-06-03 07:30:00,62.4,58.2,29.85,ENE,78,2.0,2.0,86,0.00,,,0.00,Wunderground v.1.15,2013-06-03 11:30:00,
2013-06-03 07:38:00,64.4,59.5,29.85,ENE,78,1.0,2.0,84,0.00,,,0.00,Wunderground v.1.15,2013-06-03 11:38:00,
2013-06-03 07:44:00,66.1,60.4,29.85,NNE,31,2.0,5.0,82,0.00,,,0.00,Wunderground v.1.15,2013-06-03 11:44:00,
2013-06-03 07:50:00,66.7,60.0,29.85,NNE,17,6.0,6.0,79,0.00,,,0.00,Wunderground v.1.15,2013-06-03 11:50:00,
2013-06-03 07:56:00,67.0,60.3,29.85,NW,321,6.0,6.0,79,0.00,,,0.00,Wunderground v.1.15,2013-06-03 11:56:00,
2013-06-03 08:02:00,67.3,59.8,29.85,NNE,28,5.0,5.0,77,0.00,,,0.00,Wunderground v.1.15,2013-06-03 12:02:00,
2013-06-03 08:08:00,67.4,59.6,29.85,NNE,15,6.0,7.0,76,0.00,,,0.00,Wunderground v.1.15,2013-06-03 12:08:00,
2013-06-03 08:14:00,66.6,59.5,29.85,NNE,18,7.0,7.0,78,0.00,,,0.00,Wunderground v.1.15,2013-06-03 12:14:00,
2013-06-03 08:20:00,66.2,59.5,29.85,NNE,22,5.0,5.0,79,0.00,,,0.00,Wunderground v.1.15,2013-06-03 12:20:00,
2013-06-03 08:26:00,66.9,60.2,29.85,NE,47,4.0,5.0,79,0.00,,,0.00,Wunderground v.1.15,2013-06-03 12:26:00,
2013-06-03 08:32:00,67.3,59.5,29.85,North,10,3.0,7.0,76,0.00,,,0.00,Wunderground v.1.15,2013-06-03 12:32:00,
2013-06-03 08:38:00,66.9,59.5,29.86,North,9,4.0,8.0,77,0.00,,,0.00,Wunderground v.1.15,2013-06-03 12:38:00,
2013-06-03 08:44:00,66.5,59.8,29.86,NNE,28,4.0,5.0,79,0.00,,,0.00,Wunderground v.1.15,2013-06-03 12:44:00,
2013-06-03 08:50:00,66.5,59.8,29.86,NNE,29,4.0,4.0,79,0.00,,,0.00,Wunderground v.1.15,2013-06-03 12:50:00,
2013-06-03 08:56:00,66.8,59.7,29.86,NNE,20,4.0,4.0,78,0.00,,,0.00,Wunderground v.1.15,2013-06-03 12:56:00,
2013-06-03 09:02:00,67.2,60.1,29.86,NNE,33,3.0,4.0,78,0.00,,,0.00,Wunderground v.1.15,2013-06-03 13:02:00,
2013-06-03 09:08:00,67.3,60.2,29.86,North,5,3.0,4.0,78,0.00,,,0.00,Wunderground v.1.15,2013-06-03 13:08:00,
2013-06-03 09:14:00,67.5,60.4,29.87,NNE,21,3.0,4.0,78,0.00,,,0.00,Wunderground v.1.15,2013-06-03 13:14:00,
2013-06-03 09:20:00,67.7,60.2,29.87,ENE,61,3.0,3.0,77,0.00,,,0.00,Wunderground v.1.15,2013-06-03 13:20:00,
2013-06-03 09:26:00,67.9,60.4,29.87,NE,49,3.0,4.0,77,0.00,,,0.00,Wunderground v.1.15,2013-06-03 13:26:00,
2013-06-03 09:32:00,67.6,60.1,29.87,NNE,26,4.0,4.0,77,0.00,,,0.00,Wunderground v.1.15,2013-06-03 13:32:00,
2013-06-03 09:38:00,68.2,60.7,29.87,North,351,5.0,8.0,77,0.00,,,0.00,Wunderground v.1.15,2013-06-03 13:38:00,
2013-06-03 09:44:00,67.8,60.7,29.86,NNE,28,6.0,8.0,78,0.00,,,0.00,Wunderground v.1.15,2013-06-03 13:44:00,
2013-06-03 09:50:00,67.8,60.7,29.86,NE,51,6.0,6.0,78,0.00,,,0.00,Wunderground v.1.15,2013-06-03 13:50:00,
2013-06-03 09:58:00,67.6,60.1,29.87,NNE,12,6.0,7.0,77,0.00,,,0.00,Wunderground v.1.15,2013-06-03 13:58:00,
2013-06-03 10:04:00,67.7,60.6,29.87,NNE,12,6.0,10.0,78,0.00,,,0.00,Wunderground v.1.15,2013-06-03 14:04:00,
2013-06-03 10:10:00,68.3,60.4,29.87,North,355,4.0,4.0,76,0.00,,,0.00,Wunderground v.1.15,2013-06-03 14:10:00,
2013-06-03 10:18:00,68.9,60.3,29.87,ENE,69,2.0,5.0,74,0.00,,,0.00,Wunderground v.1.15,2013-06-03 14:18:00,
2013-06-03 10:24:00,68.8,60.2,29.86,North,11,3.0,4.0,74,0.00,,,0.00,Wunderground v.1.15,2013-06-03 14:24:00,
2013-06-03 10:30:00,68.8,59.8,29.87,North,360,3.0,8.0,73,0.00,,,0.00,Wunderground v.1.15,2013-06-03 14:30:00,
2013-06-03 10:36:00,68.5,60.3,29.87,NNE,15,4.0,8.0,75,0.00,,,0.00,Wunderground v.1.15,2013-06-03 14:36:00,
2013-06-03 10:42:00,68.4,60.2,29.86,NE,46,4.0,5.0,75,0.00,,,0.00,Wunderground v.1.15,2013-06-03 14:42:00,
2013-06-03 10:48:00,68.6,59.6,29.87,ENE,57,3.0,5.0,73,0.00,,,0.00,Wunderground v.1.15,2013-06-03 14:48:00,
2013-06-03 10:54:00,68.8,59.4,29.87,NNE,18,3.0,5.0,72,0.00,,,0.00,Wunderground v.1.15,2013-06-03 14:54:00,
2013-06-03 11:00:00,69.0,60.4,29.87,NNE,18,2.0,2.0,74,0.00,,,0.00,Wunderground v.1.15,2013-06-03 15:00:00,
2013-06-03 11:06:00,69.2,59.8,29.87,NNE,18,0.0,2.0,72,0.00,,,0.00,Wunderground v.1.15,2013-06-03 15:06:00,
2013-06-03 11:12:00,68.9,59.5,29.87,NNE,18,1.0,2.0,72,0.00,,,0.00,Wunderground v.1.15,2013-06-03 15:12:00,
2013-06-03 11:18:00,68.6,60.4,29.87,NNE,18,1.0,2.0,75,0.00,,,0.00,Wunderground v.1.15,2013-06-03 15:18:00,
2013-06-03 11:24:00,68.5,60.3,29.87,NNE,18,0.0,0.0,75,0.00,,,0.00,Wunderground v.1.15,2013-06-03 15:24:00,
2013-06-03 11:30:00,68.5,60.3,29.87,NNE,19,0.0,3.0,75,0.00,,,0.00,Wunderground v.1.15,2013-06-03 15:30:00,
2013-06-03 11:36:00,68.4,60.2,29.87,North,5,2.0,4.0,75,0.00,,,0.00,Wunderground v.1.15,2013-06-03 15:36:00,
2013-06-03 11:42:00,68.1,60.2,29.87,NNE,13,3.0,4.0,76,0.00,,,0.00,Wunderground v.1.15,2013-06-03 15:42:00,
2013-06-03 11:48:00,67.8,60.0,29.87,North,5,4.0,7.0,76,0.00,,,0.00,Wunderground v.1.15,2013-06-03 15:48:00,
2013-06-03 11:54:00,67.6,60.1,29.87,North,5,4.0,4.0,77,0.00,,,0.00,Wunderground v.1.15,2013-06-03 15:54:00,
2013-06-03 12:00:00,67.7,60.2,29.87,NNE,32,3.0,3.0,77,0.00,,,0.00,Wunderground v.1.15,2013-06-03 16:00:00,
2013-06-03 12:06:00,67.7,59.9,29.87,NNE,31,2.0,4.0,76,0.00,,,0.00,Wunderground v.1.15,2013-06-03 16:06:00,
2013-06-03 12:12:00,67.6,60.1,29.87,NNE,31,2.0,3.0,77,0.00,,,0.00,Wunderground v.1.15,2013-06-03 16:12:00,
2013-06-03 12:18:00,67.5,60.0,29.87,NNE,28,2.0,4.0,77,0.00,,,0.00,Wunderground v.1.15,2013-06-03 16:18:00,
2013-06-03 12:24:00,67.7,59.9,29.87,WNW,303,2.0,5.0,76,0.00,,,0.00,Wunderground v.1.15,2013-06-03 16:24:00,
2013-06-03 12:30:00,67.7,59.5,29.88,WNW,302,4.0,4.0,75,0.00,,,0.00,Wunderground v.1.15,2013-06-03 16:30:00,
2013-06-03 12:36:00,67.4,59.6,29.88,NW,320,5.0,5.0,76,0.00,,,0.00,Wunderground v.1.15,2013-06-03 16:36:00,
2013-06-03 12:42:00,67.2,59.7,29.88,NW,315,4.0,6.0,77,0.00,,,0.00,Wunderground v.1.15,2013-06-03 16:42:00,
2013-06-03 12:48:00,67.2,59.0,29.88,NW,313,4.0,6.0,75,0.00,,,0.00,Wunderground v.1.15,2013-06-03 16:48:00,
2013-06-03 12:54:00,67.2,59.4,29.88,NW,304,5.0,9.0,76,0.00,,,0.00,Wunderground v.1.15,2013-06-03 16:54:00,
2013-06-03 13:00:00,67.2,59.7,29.88,NW,315,4.0,5.0,77,0.00,,,0.00,Wunderground v.1.15,2013-06-03 17:00:00,
2013-06-03 13:06:00,67.2,59.4,29.88,NW,319,4.0,5.0,76,0.00,,,0.00,Wunderground v.1.15,2013-06-03 17:06:00,
2013-06-03 13:12:00,67.2,58.6,29.89,NW,321,5.0,5.0,74,0.00,,,0.00,Wunderground v.1.15,2013-06-03 17:12:00,
2013-06-03 13:18:00,67.3,59.5,29.89,NW,319,4.0,5.0,76,0.00,,,0.00,Wunderground v.1.15,2013-06-03 17:18:00,
2013-06-03 13:24:00,67.3,59.1,29.89,NW,310,4.0,6.0,75,0.00,,,0.00,Wunderground v.1.15,2013-06-03 17:24:00,
2013-06-03 13:30:00,67.2,58.6,29.89,WNW,300,5.0,5.0,74,0.00,,,0.00,Wunderground v.1.15,2013-06-03 17:30:00,
2013-06-03 13:36:00,67.6,59.8,29.88,NW,310,3.0,5.0,76,0.00,,,0.00,Wunderground v.1.15,2013-06-03 17:36:00,
2013-06-03 13:42:00,68.3,59.7,29.88,NW,310,1.0,2.0,74,0.00,,,0.00,Wunderground v.1.15,2013-06-03 17:42:00,
2013-06-03 13:48:00,69.0,60.0,29.88,NNE,19,2.0,2.0,73,0.00,,,0.00,Wunderground v.1.15,2013-06-03 17:48:00,
2013-06-03 13:54:00,69.1,60.5,29.88,NNW,348,2.0,4.0,74,0.00,,,0.00,Wunderground v.1.15,2013-06-03 17:54:00,
2013-06-03 14:00:00,69.6,60.6,29.88,NNW,344,3.0,4.0,73,0.00,,,0.00,Wunderground v.1.15,2013-06-03 18:00:00,
2013-06-03 14:06:00,70.1,61.8,29.87,NNE,12,4.0,5.0,75,0.00,,,0.00,Wunderground v.1.15,2013-06-03 18:06:00,
2013-06-03 14:12:00,71.5,61.2,29.86,NW,319,4.0,9.0,70,0.00,,,0.00,Wunderground v.1.15,2013-06-03 18:12:00,
2013-06-03 14:18:00,70.4,60.5,29.87,NW,321,5.0,9.0,71,0.00,,,0.00,Wunderground v.1.15,2013-06-03 18:18:00,
2013-06-03 14:24:00,70.1,61.0,29.86,North,11,5.0,6.0,73,0.00,,,0.00,Wunderground v.1.15,2013-06-03 18:24:00,
2013-06-03 14:30:00,71.1,58.3,29.87,WNW,287,6.0,6.0,64,0.00,,,0.00,Wunderground v.1.15,2013-06-03 18:30:00,
2013-06-03 14:36:00,70.7,59.2,29.87,WNW,300,7.0,11.0,67,0.00,,,0.00,Wunderground v.1.15,2013-06-03 18:36:00,
2013-06-03 14:42:00,71.4,59.0,29.87,WNW,290,8.0,8.0,65,0.00,,,0.00,Wunderground v.1.15,2013-06-03 18:42:00,
2013-06-03 14:48:00,71.0,59.9,29.87,WNW,298,8.0,8.0,68,0.00,,,0.00,Wunderground v.1.15,2013-06-03 18:48:00,
2013-06-03 14:54:00,71.7,59.3,29.87,NW,304,8.0,11.0,65,0.00,,,0.00,Wunderground v.1.15,2013-06-03 18:54:00,
2013-06-03 15:00:00,70.8,59.7,29.87,West,279,9.0,11.0,68,0.00,,,0.00,Wunderground v.1.15,2013-06-03 19:00:00,
2013-06-03 15:06:00,71.7,59.7,29.87,WNW,291,8.0,11.0,66,0.00,,,0.00,Wunderground v.1.15,2013-06-03 19:06:00,
2013-06-03 15:12:00,71.3,58.1,29.87,West,270,6.0,10.0,63,0.00,,,0.00,Wunderground v.1.15,2013-06-03 19:12:00,
2013-06-03 15:18:00,70.7,58.4,29.87,NW,323,7.0,10.0,65,0.00,,,0.00,Wunderground v.1.15,2013-06-03 19:18:00,
2013-06-03 15:24:00,70.5,59.0,29.87,NW,319,6.0,11.0,67,0.00,,,0.00,Wunderground v.1.15,2013-06-03 19:24:00,
2013-06-03 15:30:00,70.2,58.3,29.87,NNW,327,7.0,7.0,66,0.00,,,0.00,Wunderground v.1.15,2013-06-03 19:30:00,
2013-06-03 15:36:00,69.8,57.9,29.87,NW,306,8.0,9.0,66,0.00,,,0.00,Wunderground v.1.15,2013-06-03 19:36:00,
2013-06-03 15:42:00,69.5,58.1,29.87,NW,319,9.0,9.0,67,0.00,,,0.00,Wunderground v.1.15,2013-06-03 19:42:00,
2013-06-03 15:48:00,70.1,59.0,29.87,NNW,327,6.0,9.0,68,0.00,,,0.00,Wunderground v.1.15,2013-06-03 19:48:00,
2013-06-03 15:54:00,70.7,58.4,29.88,WSW,237,5.0,12.0,65,0.00,,,0.00,Wunderground v.1.15,2013-06-03 19:54:00,
2013-06-03 16:00:00,70.3,57.5,29.87,West,281,8.0,9.0,64,0.00,,,0.00,Wunderground v.1.15,2013-06-03 20:00:00,
2013-06-03 16:06:00,70.4,58.9,29.87,West,277,7.0,9.0,67,0.00,,,0.00,Wunderground v.1.15,2013-06-03 20:06:00,
2013-06-03 16:12:00,70.4,59.3,29.87,NW,309,4.0,5.0,68,0.00,,,0.00,Wunderground v.1.15,2013-06-03 20:12:00,
2013-06-03 16:18:00,70.0,57.7,29.87,WNW,294,5.0,10.0,65,0.00,,,0.00,Wunderground v.1.15,2013-06-03 20:18:00,
2013-06-03 16:24:00,70.4,58.5,29.87,NW,317,7.0,9.0,66,0.00,,,0.00,Wunderground v.1.15,2013-06-03 20:24:00,
2013-06-03 16:30:00,70.4,58.1,29.87,West,271,8.0,10.0,65,0.00,,,0.00,Wunderground v.1.15,2013-06-03 20:30:00,
2013-06-03 16:36:00,70.3,58.8,29.87,West,280,9.0,11.0,67,0.00,,,0.00,Wunderground v.1.15,2013-06-03 20:36:00,
2013-06-03 16:42:00,69.9,57.6,29.87,WSW,244,8.0,10.0,65,0.00,,,0.00,Wunderground v.1.15,2013-06-03 20:42:00,
2013-06-03 16:48:00,69.2,57.8,29.87,West,276,6.0,10.0,67,0.00,,,0.00,Wunderground v.1.15,2013-06-03 20:48:00,
2013-06-03 16:54:00,68.7,57.3,29.87,WNW,299,5.0,7.0,67,0.00,,,0.00,Wunderground v.1.15,2013-06-03 20:54:00,
2013-06-03 17:00:00,69.3,57.0,29.88,West,268,4.0,4.0,65,0.00,,,0.00,Wunderground v.1.15,2013-06-03 21:00:00,
2013-06-03 17:06:00,69.6,56.0,29.87,West,281,4.0,4.0,62,0.00,,,0.00,Wunderground v.1.15,2013-06-03 21:06:00,
2013-06-03 17:12:00,71.0,55.9,29.87,WNW,283,6.0,13.0,59,0.00,,,0.00,Wunderground v.1.15,2013-06-03 21:12:00,
2013-06-03 17:18:00,70.2,56.6,29.87,NW,304,9.0,13.0,62,0.00,,,0.00,Wunderground v.1.15,2013-06-03 21:18:00,
2013-06-03 17:24:00,68.7,55.2,29.87,NNW,329,9.0,11.0,62,0.00,,,0.00,Wunderground v.1.15,2013-06-03 21:24:00,
2013-06-03 17:30:00,68.5,55.4,29.88,West,281,9.0,9.0,63,0.00,,,0.00,Wunderground v.1.15,2013-06-03 21:30:00,
2013-06-03 17:36:00,67.8,55.2,29.87,WNW,288,9.0,11.0,64,0.00,,,0.00,Wunderground v.1.15,2013-06-03 21:36:00,
2013-06-03 17:42:00,67.3,56.0,29.88,WNW,301,8.0,8.0,67,0.00,,,0.00,Wunderground v.1.15,2013-06-03 21:42:00,
2013-06-03 17:48:00,67.1,56.2,29.88,NW,310,6.0,8.0,68,0.00,,,0.00,Wunderground v.1.15,2013-06-03 21:48:00,
2013-06-03 17:54:00,67.0,56.1,29.87,WNW,287,7.0,9.0,68,0.00,,,0.00,Wunderground v.1.15,2013-06-03 21:54:00,
2013-06-03 18:00:00,67.2,55.5,29.88,NW,307,7.0,11.0,66,0.00,,,0.00,Wunderground v.1.15,2013-06-03 22:00:00,
2013-06-03 18:08:00,66.9,55.6,29.88,NW,313,8.0,11.0,67,0.00,,,0.00,Wunderground v.1.15,2013-06-03 22:08:00,
2013-06-03 18:14:00,66.7,55.8,29.88,NW,325,8.0,8.0,68,0.00,,,0.00,Wunderground v.1.15,2013-06-03 22:14:00,
2013-06-03 18:20:00,66.8,55.5,29.88,WSW,245,6.0,6.0,67,0.00,,,0.00,Wunderground v.1.15,2013-06-03 22:20:00,
2013-06-03 18:26:00,66.8,55.1,29.88,WSW,248,5.0,7.0,66,0.00,,,0.00,Wunderground v.1.15,2013-06-03 22:26:00,
2013-06-03 18:32:00,66.5,55.2,29.88,WSW,248,5.0,6.0,67,0.00,,,0.00,Wunderground v.1.15,2013-06-03 22:32:00,
2013-06-03 18:38:00,66.3,55.0,29.89,West,270,6.0,8.0,67,0.00,,,0.00,Wunderground v.1.15,2013-06-03 22:38:00,
2013-06-03 18:44:00,65.9,54.6,29.89,West,266,7.0,7.0,67,0.00,,,0.00,Wunderground v.1.15,2013-06-03 22:44:00,
2013-06-03 18:50:00,65.8,54.5,29.88,WNW,294,5.0,5.0,67,0.00,,,0.00,Wunderground v.1.15,2013-06-03 22:50:00,
2013-06-03 18:56:00,66.1,54.4,29.88,NNW,328,6.0,6.0,66,0.00,,,0.00,Wunderground v.1.15,2013-06-03 22:56:00,
2013-06-03 19:02:00,66.7,54.1,29.88,WNW,288,6.0,6.0,64,0.00,,,0.00,Wunderground v.1.15,2013-06-03 23:02:00,
2013-06-03 19:08:00,66.6,54.0,29.89,WNW,294,5.0,8.0,64,0.00,,,0.00,Wunderground v.1.15,2013-06-03 23:08:00,
2013-06-03 19:14:00,66.1,54.0,29.89,NW,304,4.0,7.0,65,0.00,,,0.00,Wunderground v.1.15,2013-06-03 23:14:00,
2013-06-03 19:20:00,66.3,53.8,29.89,WNW,287,5.0,5.0,64,0.00,,,0.00,Wunderground v.1.15,2013-06-03 23:20:00,
2013-06-03 19:26:00,66.0,53.9,29.89,NW,317,4.0,5.0,65,0.00,,,0.00,Wunderground v.1.15,2013-06-03 23:26:00,
2013-06-03 19:32:00,65.3,54.1,29.90,WNW,285,4.0,4.0,67,0.00,,,0.00,Wunderground v.1.15,2013-06-03 23:32:00,
2013-06-03 19:38:00,65.2,54.4,29.91,WNW,287,2.0,4.0,68,0.00,,,0.00,Wunderground v.1.15,2013-06-03 23:38:00,
2013-06-03 19:44:00,64.8,53.2,29.91,WNW,287,2.0,2.0,66,0.00,,,0.00,Wunderground v.1.15,2013-06-03 23:44:00,
2013-06-03 19:50:00,64.6,53.4,29.92,West,263,3.0,6.0,67,0.00,,,0.00,Wunderground v.1.15,2013-06-03 23:50:00,
2013-06-03 19:56:00,64.3,53.5,29.92,West,277,5.0,8.0,68,0.00,,,0.00,Wunderground v.1.15,2013-06-03 23:56:00,
2013-06-03 20:02:00,64.5,53.3,29.92,NNW,333,3.0,4.0,67,0.00,,,0.00,Wunderground v.1.15,2013-06-04 00:02:00,
2013-06-03 20:08:00,64.3,53.5,29.92,NNW,333,1.0,4.0,68,0.00,,,0.00,Wunderground v.1.15,2013-06-04 00:08:00,
2013-06-03 20:14:00,63.5,53.1,29.92,NNW,333,1.0,2.0,69,0.00,,,0.00,Wunderground v.1.15,2013-06-04 00:14:00,
2013-06-03 20:20:00,62.7,53.2,29.93,NNW,333,0.0,0.0,71,0.00,,,0.00,Wunderground v.1.15,2013-06-04 00:20:00,
2013-06-03 20:26:00,61.9,53.1,29.93,NNW,333,0.0,0.0,73,0.00,,,0.00,Wunderground v.1.15,2013-06-04 00:26:00,
2013-06-03 20:32:00,60.9,52.9,29.93,NNW,333,0.0,2.0,75,0.00,,,0.00,Wunderground v.1.15,2013-06-04 00:32:00,
2013-06-03 20:38:00,60.3,53.1,29.93,WNW,292,1.0,3.0,77,0.00,,,0.00,Wunderground v.1.15,2013-06-04 00:38:00,
2013-06-03 20:44:00,59.9,52.7,29.93,WNW,290,1.0,2.0,77,0.00,,,0.00,Wunderground v.1.15,2013-06-04 00:44:00,
2013-06-03 20:50:00,59.6,52.4,29.93,WNW,291,2.0,2.0,77,0.00,,,0.00,Wunderground v.1.15,2013-06-04 00:50:00,
2013-06-03 20:56:00,59.4,52.5,29.94,WNW,291,1.0,2.0,78,0.00,,,0.00,Wunderground v.1.15,2013-06-04 00:56:00,
2013-06-03 21:02:00,59.1,52.2,29.94,WNW,291,0.0,4.0,78,0.00,,,0.00,Wunderground v.1.15,2013-06-04 01:02:00,
2013-06-03 21:08:00,58.9,52.1,29.94,West,278,1.0,4.0,78,0.00,,,0.00,Wunderground v.1.15,2013-06-04 01:08:00,
2013-06-03 21:14:00,58.6,51.4,29.94,West,278,1.0,1.0,77,0.00,,,0.00,Wunderground v.1.15,2013-06-04 01:14:00,
2013-06-03 21:20:00,57.8,51.3,29.95,West,271,0.0,0.0,79,0.00,,,0.00,Wunderground v.1.15,2013-06-04 01:20:00,
2013-06-03 21:26:00,57.1,51.0,29.94,West,271,1.0,2.0,80,0.00,,,0.00,Wunderground v.1.15,2013-06-04 01:26:00,
2013-06-03 21:32:00,56.5,50.7,29.95,West,271,0.0,0.0,81,0.00,,,0.00,Wunderground v.1.15,2013-06-04 01:32:00,
2013-06-03 21:38:00,55.8,50.4,29.95,West,271,0.0,0.0,82,0.00,,,0.00,Wunderground v.1.15,2013-06-04 01:38:00,
2013-06-03 21:44:00,54.9,50.2,29.95,West,271,0.0,1.0,84,0.00,,,0.00,Wunderground v.1.15,2013-06-04 01:44:00,
2013-06-03 21:50:00,54.0,49.3,29.95,West,273,0.0,0.0,84,0.00,,,0.00,Wunderground v.1.15,2013-06-04 01:50:00,
2013-06-03 21:56:00,53.3,48.9,29.95,West,273,0.0,0.0,85,0.00,,,0.00,Wunderground v.1.15,2013-06-04 01:56:00,
2013-06-03 22:02:00,52.7,48.3,29.96,West,273,0.0,0.0,85,0.00,,,0.00,Wunderground v.1.15,2013-06-04 02:02:00,
2013-06-03 22:08:00,52.0,47.9,29.96,West,273,0.0,0.0,86,0.00,,,0.00,Wunderground v.1.15,2013-06-04 02:08:00,
2013-06-03 22:14:00,51.5,47.5,29.96,West,273,0.0,0.0,86,0.00,,,0.00,Wunderground v.1.15,2013-06-04 02:14:00,
2013-06-03 22:20:00,51.3,47.6,29.96,West,273,0.0,0.0,87,0.00,,,0.00,Wunderground v.1.15,2013-06-04 02:20:00,
2013-06-03 22:26:00,50.6,47.2,29.97,West,273,0.0,0.0,88,0.00,,,0.00,Wunderground v.1.15,2013-06-04 02:26:00,
2013-06-03 22:32:00,50.2,46.8,29.97,SW,216,0.0,2.0,88,0.00,,,0.00,Wunderground v.1.15,2013-06-04 02:32:00,
2013-06-03 22:38:00,50.0,46.3,29.97,SW,216,1.0,2.0,87,0.00,,,0.00,Wunderground v.1.15,2013-06-04 02:38:00,
2013-06-03 22:44:00,49.6,46.2,29.98,SW,216,0.0,0.0,88,0.00,,,0.00,Wunderground v.1.15,2013-06-04 02:44:00,
2013-06-03 22:50:00,49.3,46.2,29.98,WNW,290,0.0,0.0,89,0.00,,,0.00,Wunderground v.1.15,2013-06-04 02:50:00,
2013-06-03 22:56:00,49.1,46.0,29.98,WNW,289,0.0,1.0,89,0.00,,,0.00,Wunderground v.1.15,2013-06-04 02:56:00,
2013-06-03 23:02:00,49.0,46.2,29.98,WNW,289,0.0,2.0,90,0.00,,,0.00,Wunderground v.1.15,2013-06-04 03:02:00,
2013-06-03 23:08:00,48.9,46.1,29.98,WNW,288,0.0,2.0,90,0.00,,,0.00,Wunderground v.1.15,2013-06-04 03:08:00,
2013-06-03 23:14:00,48.7,45.6,29.99,WNW,288,0.0,0.0,89,0.00,,,0.00,Wunderground v.1.15,2013-06-04 03:14:00,
2013-06-03 23:20:00,48.5,45.4,29.99,WNW,288,0.0,0.0,89,0.00,,,0.00,Wunderground v.1.15,2013-06-04 03:20:00,
2013-06-03 23:26:00,48.2,45.1,29.99,WNW,288,0.0,0.0,89,0.00,,,0.00,Wunderground v.1.15,2013-06-04 03:26:00,
2013-06-03 23:32:00,48.1,45.3,29.99,WNW,288,0.0,0.0,90,0.00,,,0.00,Wunderground v.1.15,2013-06-04 03:32:00,
2013-06-03 23:38:00,47.7,44.3,29.99,NNE,30,0.0,2.0,88,0.00,,,0.00,Wunderground v.1.15,2013-06-04 03:38:00,
2013-06-03 23:44:00,47.1,44.0,29.99,ENE,70,1.0,3.0,89,0.00,,,0.00,Wunderground v.1.15,2013-06-04 03:44:00,
2013-06-03 23:50:00,47.1,44.0,30.00,NE,51,2.0,3.0,89,0.00,,,0.00,Wunderground v.1.15,2013-06-04 03:50:00,
2013-06-03 23:56:00,47.3,43.9,30.00,ENE,71,3.0,5.0,88,0.00,,,0.00,Wunderground v.1.15,2013-06-04 03:56:00,